This is the latest recevied weather packets stored in our database for station/object WX7FGZ-6. If no packets are shown the sender has not sent any weather packets the latest 10 day(s).
| Time | Temp. | Humidity | Pressure | Rain* | Wind** | Luminosity | Snow |
|---|---|---|---|---|---|---|---|
| 1777385707 | -3.89° C | 18% | 1017 hPa | 0 mm | - | - | - |
| 1777384303 | -3.89° C | 19% | 1016.9 hPa | 0 mm | - | - | - |
| 1777384003 | -3.89° C | 22% | 1016.9 hPa | 0 mm | - | - | - |
| 1777383677 | -3.89° C | 21% | 1016.8 hPa | 0 mm | - | - | - |
| 1777383541 | -4.44° C | 24% | 1016.8 hPa | 0 mm | - | - | - |
| 1777383380 | -4.44° C | 24% | 1016.8 hPa | 0 mm | - | - | - |
| 1777383376 | -4.44° C | 24% | 1016.8 hPa | 0 mm | - | - | - |
| 1777383076 | -4.44° C | 26% | 1016.7 hPa | 0 mm | - | - | - |
| 1777382777 | -4.44° C | 29% | 1016.8 hPa | 0 mm | - | - | - |
| 1777382477 | -4.44° C | 30% | 1016.6 hPa | 0 mm | - | - | - |
| 1777382340 | -4.44° C | 32% | 1016.5 hPa | 0 mm | - | - | - |
| 1777382176 | -4.44° C | 32% | 1016.5 hPa | 0 mm | - | - | - |
| 1777381909 | -4.44° C | 32% | 1016.3 hPa | 0 mm | - | - | - |
| 1777381876 | -4.44° C | 32% | 1016.3 hPa | 0 mm | - | - | - |
| 1777381577 | -5° C | 35% | 1016.2 hPa | 0 mm | - | - | - |
| 1777381277 | -5° C | 36% | 1016.2 hPa | 0 mm | - | - | - |
| 1777380976 | -5° C | 38% | 1016.4 hPa | 0 mm | - | - | - |
| 1777380676 | -5° C | 37% | 1016.3 hPa | 0 mm | - | - | - |
| 1777380376 | -4.44° C | 36% | 1016.3 hPa | 0 mm | - | - | - |
| 1777379101 | -4.44° C | 35% | 1016.1 hPa | 0 mm | - | - | - |
| 1777378800 | -4.44° C | 35% | 1015.8 hPa | 0 mm | - | - | - |
| 1777378669 | -4.44° C | 36% | 1015.8 hPa | 0 mm | - | - | - |
| 1777378501 | -4.44° C | 36% | 1015.8 hPa | 0 mm | - | - | - |
| 1777378136 | -4.44° C | 34% | 1015.7 hPa | 0 mm | - | - | - |
| 1777377491 | -4.44° C | 37% | 1015.6 hPa | 0 mm | - | - | - |
* Rain latest hour (hover to see other rain measurements)
** Current wind speed in m/s (hover to see current wind gust speed)